Location: McNierney
(34.1937°N, 106.9061°W)
Time: 02:21:56
(UTC+00:00)

CZ-4 R/B - Pass Details

Date: 11 December 2025
Orbit: 675 x 744 km, 98.7° (Epoch: 12 January)

Event Time Altitude Azimuth Distance (km) Brightness Sun altitude
Rises 12:26:09 0° 8° (N) 3,037 7.0 -19.6°
Reaches altitude 10° 12:28:25 10° 5° (N) 2,115 6.2 -19.1°
Maximum altitude 12:32:57 60° 286° (WNW) 772 3.7 -18.2°
Drops below altitude 10° 12:37:28 10° 207° (SSW) 2,104 6.2 -17.3°
Sets 12:39:42 0° 203° (SSW) 3,019 7.0 -16.9°
